Dubai, UAE

4:53 AM +04 on August 20, 2017 (GMT +0400)
Dubai

Weather History for 41194 - May, 2013

Change the Weather History Date:

Saturday, May 4, 2013

  Actual Average Record
Temperature  
Mean Temperature 86 °F -  
Max Temperature 94 °F 98 °F - ()
Min Temperature 78 °F 77 °F - ()
Cooling Degree Days 21    
Growing Degree Days 36 (Base 50)    
Moisture  
Dew Point 65 °F    
Average Humidity 49    
Maximum Humidity 69    
Minimum Humidity 21    
Precipitation  
Precipitation 0.00 in 0.00 in - ()
Sea Level Pressure  
Sea Level Pressure 29.78 in    
Wind  
Wind Speed 6 mph ()    
Max Wind Speed 14 mph    
Max Gust Speed -    
Visibility 6.0 miles    
Events      
T = Trace of Precipitation, MM = Missing Value Source: Averaged Metar Reports

Daily Weather History Graph

Daily Weather History Graph

Search for Another Location

Airport or City:

Trip Planner

Search our weather history database for the weather conditions in past years. The results will help you decide how hot, cold, wet, or windy it might be!

Date:

Astronomy

May. 04, 2013 Rise Set
Actual Time 5:40 AM +04 6:50 PM +04
Civil Twilight 5:16 AM +04 7:14 PM +04
Nautical Twilight 4:47 AM +04 7:43 PM +04
Astronomical Twilight 4:18 AM +04 8:13 PM +04
Moon 1:51 AM +04 (5/4) 1:54 PM +04 (5/4)
Length of Visible Light 13h 58m
Length of Day
13h 10m
Waning Crescent, 30% of the Moon is Illuminated
May 4
Waning Crescent
May 10
New
May 18
First Quarter
May 25
Full
May 31
Last Quarter

Hourly Weather History & Observations

Time (+04) Temp. Heat Index Dew Point Humidity Pressure Visibility Wind Dir Wind Speed Gust Speed Precip Events Conditions
12:00 AM 82.4 °F 86.3 °F 69.8 °F 66% 29.80 in - South 5.8 mph - N/A   Clear
1:00 AM 82 °F - 68 °F 55% 29.78 in 6 mi SSE 5.8 mph - -  
1:00 AM 82.4 °F 85.4 °F 68.0 °F 62% 29.77 in - SSE 5.8 mph - N/A   Clear
2:00 AM 80.6 °F 83.2 °F 68.0 °F 65% 29.74 in - SE 4.6 mph - N/A   Clear
3:00 AM 80.6 °F 83.2 °F 68.0 °F 65% 29.74 in - South 3.5 mph - N/A   Clear
4:00 AM 80 °F - 67 °F 57% 29.76 in 6 mi 3.5 mph - -  
4:00 AM 80.6 °F 83.2 °F 68.0 °F 65% 29.74 in - Variable 3.5 mph - N/A   Clear
5:00 AM 78.8 °F - 68.0 °F 69% 29.74 in - SSE 3.5 mph - N/A   Clear
6:00 AM 78.8 °F - 66.2 °F 65% 29.77 in - South 3.5 mph - N/A   Clear
7:00 AM 80 °F - 65 °F 51% 29.80 in 6 mi 2.3 mph - -   Clear
7:00 AM 80.6 °F 82.3 °F 64.4 °F 58% 29.77 in - Variable 2.3 mph - N/A   Clear
8:00 AM 82.4 °F 84.6 °F 66.2 °F 58% 29.80 in - South 3.5 mph - N/A   Clear
9:00 AM 86.0 °F 87.3 °F 64.4 °F 48% 29.83 in - Variable 5.8 mph - N/A   Clear
10:00 AM 92 °F - 57 °F 21% 29.84 in 6 mi WSW 4.6 mph - -   Clear
10:00 AM 93.2 °F 91.9 °F 57.2 °F 30% 29.83 in - Variable 4.6 mph - N/A   Clear
11:00 AM 93.2 °F 91.9 °F 57.2 °F 30% 29.83 in - WNW 12.7 mph - N/A   Clear
12:00 PM 91.4 °F 90.7 °F 59.0 °F 34% 29.83 in - West 13.8 mph - N/A   Clear
1:00 PM 91 °F - 62 °F 28% 29.81 in 6 mi WNW 12.7 mph - -   Clear
1:00 PM 91.4 °F 92.1 °F 62.6 °F 38% 29.80 in - WNW 12.7 mph - N/A   Clear
2:00 PM 91.4 °F 93.2 °F 64.4 °F 41% 29.80 in - West 13.8 mph - N/A   Clear
3:00 PM 91.4 °F 92.1 °F 62.6 °F 38% 29.77 in - West 13.8 mph - N/A   Clear
4:00 PM 91 °F - 65 °F 32% 29.78 in 6 mi West 12.7 mph - -   Clear
4:00 PM 91.4 °F 93.2 °F 64.4 °F 41% 29.77 in - West 12.7 mph - N/A   Clear
5:00 PM 89.6 °F 91.1 °F 64.4 °F 43% 29.74 in - WNW 11.5 mph - N/A   Clear
6:00 PM 87.8 °F 90.4 °F 66.2 °F 49% 29.74 in - WNW 13.8 mph - N/A   Clear
7:00 PM 87 °F - 66 °F 39% 29.73 in 6 mi West 10.4 mph - -   Clear
7:00 PM 86.0 °F 88.2 °F 66.2 °F 51% 29.71 in - West 10.4 mph - N/A   Clear
8:00 PM 86.0 °F 89.4 °F 68.0 °F 55% 29.74 in - West 11.5 mph - N/A   Clear
9:00 PM 84.2 °F 87.3 °F 68.0 °F 58% 29.74 in - West 5.8 mph - N/A   Clear
10:00 PM 84 °F - 68 °F 50% 29.78 in 6 mi West 6.9 mph - -   Clear
10:00 PM 84.2 °F 87.3 °F 68.0 °F 58% 29.77 in - West 6.9 mph - N/A   Clear
11:00 PM 84.2 °F 87.3 °F 68.0 °F 58% 29.77 in - SW 5.8 mph - N/A   Clear